スキッフ彗星

352P/Skiff (2000)

English version
Home page
Updated on July 5, 2017

---------------------------------------------------------------------

・ プロフィール

符号 352P/2000 S1
発見日 2000年9月24日
発見光度 14.8等
発見者 B. A. Skiff (Lowell Observatory)

・ 軌道要素

Epoch 2000 June 25.0 TT = JDT 2451720.5
T 2000 July 14.63453 TT                                 MPCW
q   2.5136188            (2000.0)            P               Q
n   0.05832823     Peri.  308.42857     +0.89898278     +0.40169857
a   6.5849151      Node    29.13953     -0.19667413     +0.72633317
e   0.6182762      Incl.   21.00611     -0.39134288     +0.55774402
P  16.90
From 171 observations 2000 Aug. 26-2017 June 6, mean residual 0".8.

・ 星図

・ 光度変化

        m1 = 0.0 + 5 logΔ + 35 log r

---------------------------------------------------------------------

軌道要素は Dr. Brian G. Marsden の計算によるもので、 M.P.E.C. 2017-L51 に掲載されたものです。
星図は StellaNavigator Ver.2.0 for Windows (アストロアーツ 編著 / アスキー出版局刊) で作成したものです。
光度グラフはComet for Windowsで作成したものです。

---------------------------------------------------------------------

Copyright(C) Seiichi Yoshida (comet@aerith.net). All rights reserved.